This is the latest recevied weather packets stored in our database for station/object N8SDR. If no packets are shown the sender has not sent any weather packets the latest 10 day(s).
| Time | Temp. | Humidity | Pressure | Rain* | Wind** | Luminosity | Snow |
|---|---|---|---|---|---|---|---|
| 1777426858 | 17.78° C | 85% | 1009.7 hPa | 0 mm | - | 0 W/m² | - |
| 1777426554 | 17.78° C | 84% | 1009.7 hPa | 0 mm | - | 0 W/m² | - |
| 1777426250 | 17.78° C | 83% | 1009.5 hPa | 0 mm | - | 0 W/m² | - |
| 1777425945 | 18.33° C | 83% | 1009.8 hPa | 0 mm | - | 0 W/m² | - |
| 1777425640 | 17.78° C | 85% | 1009.6 hPa | 0 mm | - | 0 W/m² | - |
| 1777425337 | 18.33° C | 85% | 1009.6 hPa | 0 mm | - | 0 W/m² | - |
| 1777425033 | 18.33° C | 85% | 1009.5 hPa | 0 mm | - | 0 W/m² | - |
| 1777424729 | 18.33° C | 84% | 1009.7 hPa | 0 mm | - | 0 W/m² | - |
| 1777424424 | 18.89° C | 83% | 1009.6 hPa | 0 mm | - | 0 W/m² | - |
| 1777424120 | 18.89° C | 82% | 1009.6 hPa | 0 mm | - | 0 W/m² | - |
| 1777423818 | 18.89° C | 81% | 1009.8 hPa | 0 mm | - | 0 W/m² | - |
| 1777423514 | 18.89° C | 82% | 1009.9 hPa | 0 mm | - | 0 W/m² | - |
| 1777423209 | 19.44° C | 81% | 1009.8 hPa | 0 mm | - | 0 W/m² | - |
| 1777422903 | 19.44° C | 80% | 1009.7 hPa | 0 mm | - | 0 W/m² | - |
| 1777422599 | 19.44° C | 80% | 1009.5 hPa | 0 mm | - | 0 W/m² | - |
| 1777422295 | 20° C | 79% | 1009.6 hPa | 0 mm | - | 0 W/m² | - |
| 1777421995 | 20° C | 78% | 1009.6 hPa | 0 mm | - | 1 W/m² | - |
| 1777421690 | 20° C | 76% | 1009.6 hPa | 0 mm | - | 4 W/m² | - |
| 1777421385 | 20° C | 76% | 1009.6 hPa | 0 mm | - | 6 W/m² | - |
| 1777421082 | 20.56° C | 75% | 1009.7 hPa | 0 mm | - | 9 W/m² | - |
| 1777420778 | 20.56° C | 74% | 1009.6 hPa | 0 mm | - | 12 W/m² | - |
| 1777420474 | 20.56° C | 74% | 1009.8 hPa | 0 mm | - | 17 W/m² | - |
| 1777420171 | 20.56° C | 74% | 1009.9 hPa | 0 mm | - | 22 W/m² | - |
| 1777419867 | 21.11° C | 73% | 1009.6 hPa | 0 mm | - | 28 W/m² | - |
| 1777419565 | 21.11° C | 73% | 1009.9 hPa | 0 mm | - | 29 W/m² | - |
* Rain latest hour (hover to see other rain measurements)
** Current wind speed in m/s (hover to see current wind gust speed)